[keps] orb07327.amsat
Ray Hoad
r.hoad at att.net
Fri Nov 23 21:03:48 PST 2007
SB KEPS @ AMSAT $ORB07327.O
Orbital Elements 07327.OSCAR
HR AMSAT ORBITAL ELEMENTS FOR OSCAR SATELLITES
FROM WA5QGD FORT WORTH,TX November 23, 2007
Send Subscribe/unsubscribe to KEPS at
http://www.amsat.org/mailman/listinfo/keps
BID: ORB07327.O
TO ALL RADIO AMATEURS BT
Satellite: AO-07
Catalog number: 07530
Epoch time: 07326.71696485
Element set: 0034
Inclination: 101.4962 deg
RA of node: 359.9472 deg
Eccentricity: 0.0011841
Arg of perigee: 307.5200 deg
Mean anomaly: 052.4785 deg
Mean motion: 12.53572815 rev/day
Decay rate: -2.8e-07 rev/day^2
Epoch rev: 51098
Checksum: 302
Satellite: AO-10
Catalog number: 14129
Epoch time: 07326.87867449
Element set: 0448
Inclination: 025.9876 deg
RA of node: 244.6386 deg
Eccentricity: 0.6049896
Arg of perigee: 075.3993 deg
Mean anomaly: 341.2086 deg
Mean motion: 02.05870066 rev/day
Decay rate: 1.69e-06 rev/day^2
Epoch rev: 18383
Checksum: 360
Satellite: UO-11
Catalog number: 14781
Epoch time: 07326.64245392
Element set: 0528
Inclination: 098.1781 deg
RA of node: 352.3054 deg
Eccentricity: 0.0009705
Arg of perigee: 028.0241 deg
Mean anomaly: 332.1532 deg
Mean motion: 14.79595255 rev/day
Decay rate: 1.78e-06 rev/day^2
Epoch rev: 27316
Checksum: 301
Satellite: RS-15
Catalog number: 23439
Epoch time: 07326.91844360
Element set: 0104
Inclination: 064.8131 deg
RA of node: 110.2219 deg
Eccentricity: 0.0154778
Arg of perigee: 161.9698 deg
Mean anomaly: 198.6799 deg
Mean motion: 11.27552949 rev/day
Decay rate: -3.9e-07 rev/day^2
Epoch rev: 53159
Checksum: 337
Satellite: FO-29
Catalog number: 24278
Epoch time: 07327.86840811
Element set: 644
Inclination: 098.5738 deg
RA of node: 266.2190 deg
Eccentricity: 0.0351245
Arg of perigee: 029.7426 deg
Mean anomaly: 332.3179 deg
Mean motion: 13.52934228 rev/day
Decay rate: 9.0e-08 rev/day^2
Epoch rev: 55649
Checksum: 336
Satellite: SO-33
Catalog number: 25509
Epoch time: 07327.56833611
Element set: 70
Inclination: 031.4313 deg
RA of node: 044.5942 deg
Eccentricity: 0.0354868
Arg of perigee: 020.7999 deg
Mean anomaly: 340.6672 deg
Mean motion: 14.28186515 rev/day
Decay rate: 9.9e-07 rev/day^2
Epoch rev: 47405
Checksum: 317
Satellite: AO-40
Catalog number: 26609
Epoch time: 07327.58552274
Element set: 972
Inclination: 007.0232 deg
RA of node: 109.8145 deg
Eccentricity: 0.7933750
Arg of perigee: 025.9532 deg
Mean anomaly: 357.9399 deg
Mean motion: 01.25583264 rev/day
Decay rate: -5.6e-07 rev/day^2
Epoch rev: 3244
Checksum: 321
Satellite: VO-52
Catalog number: 28650
Epoch time: 07327.85797822
Element set: 786
Inclination: 097.8168 deg
RA of node: 034.8592 deg
Eccentricity: 0.0028352
Arg of perigee: 093.3830 deg
Mean anomaly: 267.0589 deg
Mean motion: 14.81385956 rev/day
Decay rate: 1.78e-06 rev/day^2
Epoch rev: 13805
Checksum: 362
Satellite: PO-63
Catalog number: 29712
Epoch time: 07327.75386335
Element set: 939
Inclination: 097.9046 deg
RA of node: 024.5594 deg
Eccentricity: 0.0013633
Arg of perigee: 336.3986 deg
Mean anomaly: 023.6596 deg
Mean motion: 14.79909265 rev/day
Decay rate: 7.65e-06 rev/day^2
Epoch rev: 4693
Checksum: 361
/EX
SB KEPS @ AMSAT $ORB07327.D
Orbital Elements 07327.MICROS
HR AMSAT ORBITAL ELEMENTS FOR THE MICROSATS
FROM WA5QGD FORT WORTH,TX November 23, 2007
Send Subscribe/unsubscribe to KEPS at
http://www.amsat.org/mailman/listinfo/keps
BID: ORB07327.D
TO ALL RADIO AMATEURS BT
Satellite: AO-16
Catalog number: 20439
Epoch time: 07326.51776785
Element set: 0186
Inclination: 098.2101 deg
RA of node: 312.4599 deg
Eccentricity: 0.0011999
Arg of perigee: 075.6782 deg
Mean anomaly: 284.5735 deg
Mean motion: 14.31776078 rev/day
Decay rate: 5.0e-08 rev/day^2
Epoch rev: 93120
Checksum: 332
Satellite: LO-19
Catalog number: 20442
Epoch time: 07326.87911137
Element set: 109
Inclination: 098.1878 deg
RA of node: 321.8830 deg
Eccentricity: 0.0012926
Arg of perigee: 073.3832 deg
Mean anomaly: 286.8793 deg
Mean motion: 14.32016059 rev/day
Decay rate: 4.9e-07 rev/day^2
Epoch rev: 93140
Checksum: 314
Satellite: AO-27
Catalog number: 22825
Epoch time: 07326.48755230
Element set: 0834
Inclination: 098.3550 deg
RA of node: 289.6461 deg
Eccentricity: 0.0008815
Arg of perigee: 148.6070 deg
Mean anomaly: 211.5619 deg
Mean motion: 14.29223056 rev/day
Decay rate: -5.0e-08 rev/day^2
Epoch rev: 73810
Checksum: 305
Satellite: IO-26
Catalog number: 22826
Epoch time: 07326.78757261
Element set: 532
Inclination: 098.3479 deg
RA of node: 290.9381 deg
Eccentricity: 0.0009263
Arg of perigee: 144.9083 deg
Mean anomaly: 215.2709 deg
Mean motion: 14.29470392 rev/day
Decay rate: 8.0e-08 rev/day^2
Epoch rev: 73823
Checksum: 330
Satellite: PO-28
Catalog number: 22829
Epoch time: 07326.87576743
Element set: 807
Inclination: 098.3362 deg
RA of node: 292.1640 deg
Eccentricity: 0.0010552
Arg of perigee: 119.8487 deg
Mean anomaly: 240.3762 deg
Mean motion: 14.30173058 rev/day
Decay rate: 6.1e-07 rev/day^2
Epoch rev: 73849
Checksum: 324
Satellite: GO-32
Catalog number: 25397
Epoch time: 07327.75865889
Element set: 458
Inclination: 098.3944 deg
RA of node: 007.8197 deg
Eccentricity: 0.0002049
Arg of perigee: 107.2943 deg
Mean anomaly: 252.8449 deg
Mean motion: 14.23132690 rev/day
Decay rate: -2.51e-06 rev/day^2
Epoch rev: 48685
Checksum: 348
Satellite: MO-46
Catalog number: 26548
Epoch time: 07326.70410952
Element set: 0955
Inclination: 064.5582 deg
RA of node: 052.2497 deg
Eccentricity: 0.0004600
Arg of perigee: 351.0558 deg
Mean anomaly: 009.0423 deg
Mean motion: 14.83199207 rev/day
Decay rate: 1.49e-06 rev/day^2
Epoch rev: 38704
Checksum: 304
Satellite: NO-44
Catalog number: 26931
Epoch time: 07326.77044797
Element set: 0740
Inclination: 067.0514 deg
RA of node: 098.9787 deg
Eccentricity: 0.0005271
Arg of perigee: 250.8062 deg
Mean anomaly: 109.2424 deg
Mean motion: 14.29501981 rev/day
Decay rate: -2.62e-06 rev/day^2
Epoch rev: 32076
Checksum: 313
Satellite: SO-50
Catalog number: 27607
Epoch time: 07327.44825584
Element set: 462
Inclination: 064.5589 deg
RA of node: 321.4633 deg
Eccentricity: 0.0072528
Arg of perigee: 321.2577 deg
Mean anomaly: 038.3330 deg
Mean motion: 14.71304371 rev/day
Decay rate: 1.83e-06 rev/day^2
Epoch rev: 26455
Checksum: 303
Satellite: CO-55
Catalog number: 27844
Epoch time: 07326.58527290
Element set: 0173
Inclination: 098.7184 deg
RA of node: 332.7287 deg
Eccentricity: 0.0010012
Arg of perigee: 359.9941 deg
Mean anomaly: 000.1219 deg
Mean motion: 14.20543891 rev/day
Decay rate: 3.3e-07 rev/day^2
Epoch rev: 22796
Checksum: 308
Satellite: CO-57
Catalog number: 27848
Epoch time: 07326.55582302
Element set: 0129
Inclination: 098.7188 deg
RA of node: 331.8448 deg
Eccentricity: 0.0010007
Arg of perigee: 003.2766 deg
Mean anomaly: 356.8484 deg
Mean motion: 14.20358793 rev/day
Decay rate: 4.1e-07 rev/day^2
Epoch rev: 22793
Checksum: 324
Satellite: AO-51
Catalog number: 28375
Epoch time: 07326.65277761
Element set: 0965
Inclination: 098.0943 deg
RA of node: 357.6620 deg
Eccentricity: 0.0085216
Arg of perigee: 062.1026 deg
Mean anomaly: 298.8762 deg
Mean motion: 14.40587574 rev/day
Decay rate: 2.0e-07 rev/day^2
Epoch rev: 17852
Checksum: 334
Satellite: CO-56
Catalog number: 28941
Epoch time: 07326.77326390
Element set: 0672
Inclination: 098.1128 deg
RA of node: 046.0971 deg
Eccentricity: 0.0203528
Arg of perigee: 068.8746 deg
Mean anomaly: 293.4123 deg
Mean motion: 15.46285459 rev/day
Decay rate: 2.9691e-04 rev/day^2
Epoch rev: 09788
Checksum: 360
Satellite: HO-59
Catalog number: 29484
Epoch time: 07327.85220199
Element set: 882
Inclination: 098.2651 deg
RA of node: 043.2549 deg
Eccentricity: 0.0161283
Arg of perigee: 048.1728 deg
Mean anomaly: 313.3175 deg
Mean motion: 15.64817560 rev/day
Decay rate: 6.2306e-04 rev/day^2
Epoch rev: 6592
Checksum: 336
Satellite: NO-61
Catalog number: 29664
Epoch time: 07327.46674875
Element set: 674
Inclination: 051.6314 deg
RA of node: 324.3186 deg
Eccentricity: 0.0002649
Arg of perigee: 295.8550 deg
Mean anomaly: 064.2093 deg
Mean motion: 16.11211515 rev/day
Decay rate: 1.97263e-03 rev/day^2
Epoch rev: 5363
Checksum: 319
Satellite: CP4
Catalog number: 31122
Epoch time: 07326.69829614
Element set: 192
Inclination: 098.0669 deg
RA of node: 034.7192 deg
Eccentricity: 0.0084786
Arg of perigee: 253.3612 deg
Mean anomaly: 105.8249 deg
Mean motion: 14.55053589 rev/day
Decay rate: 5.48e-06 rev/day^2
Epoch rev: 3190
Checksum: 320
Satellite: CP3
Catalog number: 31128
Epoch time: 07326.69400688
Element set: 187
Inclination: 098.0666 deg
RA of node: 033.6217 deg
Eccentricity: 0.0101993
Arg of perigee: 256.1426 deg
Mean anomaly: 102.8418 deg
Mean motion: 14.51884702 rev/day
Decay rate: -4.9e-07 rev/day^2
Epoch rev: 3182
Checksum: 301
Satellite: LIBERT
Catalog number: 31129
Epoch time: 07327.78330318
Element set: 540
Inclination: 098.0665 deg
RA of node: 034.6882 deg
Eccentricity: 0.0101547
Arg of perigee: 252.9771 deg
Mean anomaly: 106.0275 deg
Mean motion: 14.51977972 rev/day
Decay rate: 3.36e-06 rev/day^2
Epoch rev: 3196
Checksum: 306
/EX
SB KEPS @ AMSAT $ORB07327.W
Orbital Elements 07327.WEATHER
HR AMSAT ORBITAL ELEMENTS FOR WEATHER SATELLITES
FROM WA5QGD FORT WORTH,TX November 23, 2007
Send Subscribe/unsubscribe to KEPS at
http://www.amsat.org/mailman/listinfo/keps
BID: ORB07327.W
TO ALL RADIO AMATEURS BT
Satellite: NOAA-10
Catalog number: 16969
Epoch time: 07326.66002543
Element set: 0899
Inclination: 098.7393 deg
RA of node: 343.8872 deg
Eccentricity: 0.0013178
Arg of perigee: 067.5656 deg
Mean anomaly: 292.6928 deg
Mean motion: 14.27341725 rev/day
Decay rate: 8.8e-07 rev/day^2
Epoch rev: 10183
Checksum: 345
Satellite: NOAA-11
Catalog number: 19531
Epoch time: 07326.68210988
Element set: 0929
Inclination: 098.8080 deg
RA of node: 053.8417 deg
Eccentricity: 0.0011011
Arg of perigee: 302.6425 deg
Mean anomaly: 057.3714 deg
Mean motion: 14.14854889 rev/day
Decay rate: -2.15e-06 rev/day^2
Epoch rev: 98856
Checksum: 322
